Location: Ertinghausen
(51.6624°N, 9.7874°E)
Time: 08:55:59
(UTC+00:00)

NPP - Pass Details

Date: 23 May 2024
Orbit: 826 x 827 km, 98.7° (Epoch: 24 June)

Event Time Altitude Azimuth Distance (km) Brightness Sun altitude
Rises 00:56:37 0° 17° (NNE) 3,381 8.7 -14.5°
Reaches altitude 10° 00:59:02 10° 22° (NNE) 2,443 7.5 -14.4°
Maximum altitude 01:04:22 59° 101° (ESE) 958 4.1 -14.0°
Enters shadow 01:08:41 16° 178° (S) 2,052 5.2 -13.7°
